Location: Hannover
(52.3723°N, 9.7339°E)
Time: 04:07:29
(UTC+02:00)

ISS - Pass Details

Date: 27 March 2019
Orbit: 408 x 410 km, 51.6° (Epoch: 21 April)

Event Time Altitude Azimuth Distance (km) Brightness Sun altitude
Rises 20:08:15 0° 255° (WSW) 2,335 0.9 -13.0°
Reaches altitude 10° 20:10:20 10° 253° (WSW) 1,474 -0.2 -13.3°
Maximum altitude 20:13:37 70° 170° (S) 439 -3.8 -13.7°
Enters shadow 20:15:16 27° 92° (E) 828 -2.8 -14.0°
